Starlink 11427

operational
NORAD ID: 62063 Int'l Des: 2024-217 Owner: SPXS Country: US Constellation: starlink
LEOCIRCULAR

关于 Starlink 11427

正在加载描述...

实时位置

正在加载3D地球...

即将过境

高度历史

Altitude vs Time

uPlot chart will show altitude changes over time

两行轨道根数

1 62063U 24217G 25304.64906898 -.00344357 00000-0 -29809-2 0 9995
2 62063 53.1575 347.5708 0001010 273.2184 86.8719 15.69516133 54905
Epoch: Oct 31, 2025 • Age: 9 hours

当前状态

高度 367.1 km
速度 7.69 km/s
星下点 -22.26°S, 141.5°E
发射日期 Nov 24, 2024
运行时间 0.9 years
类型 internet

技术详情

分类 Payload
质量 960.00 kg
干质量 910.00 kg
总质量 960.00 kg
长度 0.30 m
直径 4.10 m
跨度 29.00 m
形状 Box + pan
制造商 SPXS
平台类型 Starlink V2MD
阶段状态 In Orbit
所有者/国家 SPXS/US

大型星座

Loading constellations...